LEMUR-2-ZO (43886 NORAD) Tracking and Keplerian Element Data

This shows tracking and keplerian element data for the satellite.

Feedback or suggestion? Click here.




ElementValue
Catalog43886
NameLEMUR-2-ZO
Epoch Orbit370
Epoch Day20.95221092
Epoch Year2019
RAAN291.0773
Inclination97.7293
Eccentricity0.0012083
Argument of Perigee153.7765
Mean Anonmoly206.4071
Mean Motion14.96545234
Decay Rate7.61E-06
L11 43886U 18111L 19020.95221092 .00000761 00000-0 71985-4 0 9991
L22 43886 97.7293 291.0773 0012083 153.7765 206.4071 14.96545234 3708

Live tracking and technical data element details for LEMUR-2-ZO (NORAD 43886). LEMUR-2-ZO can be tracked NOW for your location showing map with azimuth and elevation plus other details from your city location.

Track the satellite on the map from your city or location and see movement details for azimuth, elevation, latitude, longitude, range, height, and movement on the map or in text.







IsCatalogInMostPopularTable: catalog: 43886, numindb: 17
Update: records affected: 1



GetName: 43886 LEMUR-2-ZO

Hit Count: updated at: Wed, 23 Jan 2019 03:00:17 GMT